Location: Krasnoyarskiy Pitomnik
(51.1333°N, 71.6167°E)
Time: 14:50:36
(UTC+00:00)

Tiros 1 despin weight - Pass Details

Date: 19 April 2024
Orbit: 578 x 621 km, 48.2° (Epoch: 21 May)

Event Time Altitude Azimuth Distance (km) Brightness Sun altitude
Rises 14:48:41 0° 274° (W) 2,889 ? -5.5°
Reaches altitude 10° 14:52:24 10° 244° (WSW) 1,985 ? -6.0°
Maximum altitude 14:54:06 12° 222° (SW) 1,858 ? -6.2°
Drops below altitude 10° 14:55:48 10° 200° (SSW) 1,984 ? -6.5°
Sets 14:59:31 0° 169° (S) 2,887 ? -7.0°
